EW0407 Weather Reports


time (UTC)temp
C
wind
direction
speed
KPH
gust
KPH
rain 1hr
cm
rain 24hr
cm
rain mn
cm
humidity
%
barometer
mb
20260507201412 17 109 3.2 8.0 0.00 0.00 0.00 50 1023.5
20260507200248 17 156 8.0 9.7 0.00 0.00 0.00 50 1023.7
20260507195254 17 135 3.2 8.0 0.00 0.00 0.00 55 1023.9
20260507194212 17 121 6.4 11.3 0.00 0.00 0.00 55 1023.5
20260507193029 17 109 6.4 12.9 0.00 0.00 0.00 54 1023.6
20260507192113 17 102 4.8 8.0 0.00 0.00 0.00 54 1023.5
20260507191053 17 113 4.8 9.7 0.00 0.00 0.00 53 1023.4
20260507190037 17 110 4.8 9.7 0.00 0.00 0.00 53 1023.5
20260507185100 17 104 6.4 8.0 0.00 0.00 0.00 53 1023.6
20260507184013 17 117 4.8 8.0 0.00 0.00 0.00 53 1023.3
20260507182829 17 145 6.4 9.7 0.00 0.00 0.00 53 1023.3
20260507181852 17 118 4.8 8.0 0.00 0.00 0.00 54 1023.3
20260507180812 17 111 4.8 8.0 0.00 0.00 0.00 54 1023.4
20260507175628 17 122 8.0 9.7 0.00 0.00 0.00 56 1023.4
20260507174652 17 76 4.8 9.7 0.00 0.00 0.00 57 1023.0
20260507173632 17 142 4.8 14.5 0.00 0.00 0.00 57 1023.0
20260507172428 18 165 6.4 11.3 0.00 0.00 0.00 56 1022.9
20260507171452 18 117 4.8 11.3 0.00 0.00 0.00 55 1022.7
20260507170452 18 119 4.8 16.1 0.00 0.00 0.00 55 1022.5
20260507165248 19 149 11.3 16.1 0.00 0.00 0.00 53 1022.7
20260507164312 19 169 1.6 9.7 0.00 0.00 0.00 52 1022.2
20260507163213 20 132 6.4 9.7 0.00 0.00 0.00 51 1022.4
20260507162028 20 167 6.4 11.3 0.00 0.00 0.00 49 1022.1
20260507161113 20 108 8.0 9.7 0.00 0.00 0.00 46 1022.3
20260507160012 21 121 4.8 8.0 0.00 0.00 0.00 43 1022.0
20260507154849 21 130 9.7 12.9 0.00 0.00 0.00 41 1022.4
20260507153913 22 133 4.8 11.3 0.00 0.00 0.00 38 1022.3
20260507152812 22 106 4.8 9.7 0.00 0.00 0.00 35 1022.3
20260507151628 22 182 8.0 11.3 0.00 0.00 0.00 35 1022.2
20260507150653 22 11 3.2 11.3 0.00 0.00 0.00 35 1022.2
20260507145632 22 94 11.3 14.5 0.00 0.00 0.00 34 1022.2
20260507144428 22 166 8.0 12.9 0.00 0.00 0.00 32 1022.2
20260507143452 23 111 9.7 14.5 0.00 0.00 0.00 32 1022.3
20260507142412 23 153 8.0 14.5 0.00 0.00 0.00 32 1022.3
20260507141247 23 164 12.9 17.7 0.00 0.00 0.00 32 1022.1
20260507140251 23 193 4.8 16.1 0.00 0.00 0.00 33 1022.0
20260507135211 23 158 14.5 24.1 0.00 0.00 0.00 32 1021.8
20260507134027 23 155 11.3 20.9 0.00 0.00 0.00 33 1021.6
20260507133231 23 136 12.9 17.7 0.00 0.00 0.00 37 1021.4
20260507130827 23 149 11.3 16.1 0.00 0.00 0.00 35 1021.7
20260507125851 23 141 9.7 14.5 0.00 0.00 0.00 34 1022.0
20260507124811 23 113 6.4 16.1 0.00 0.00 0.00 34 1022.0
20260507123627 25 133 3.2 12.9 0.00 0.00 0.00 38 1022.1
20260507122651 26 204 4.8 11.3 0.00 0.00 0.00 30 1021.9
20260507121611 26 4 3.2 11.3 0.00 0.00 0.00 30 1022.1
20260507120428 26 157 4.8 17.7 0.00 0.00 0.00 32 1022.3
20260507115451 25 154 9.7 12.9 0.00 0.00 0.00 35 1022.2
20260507114411 26 187 11.3 14.5 0.00 0.00 0.00 29 1022.0
20260507113247 26 186 9.7 20.9 0.00 0.00 0.00 32 1022.2
20260507112311 26 178 14.5 16.1 0.00 0.00 0.00 28 1022.4
20260507111211 26 176 8.0 11.3 0.00 0.00 0.00 30 1022.2
20260507110027 25 172 12.9 17.7 0.00 0.00 0.00 31 1022.0
20260507105111 26 137 6.4 17.7 0.00 0.00 0.00 31 1022.2
20260507104011 26 139 3.2 16.1 0.00 0.00 0.00 31 1022.1
20260507103055 26 127 9.7 17.7 0.00 0.00 0.00 30 1021.9
20260507102059 25 219 8.0 12.9 0.00 0.00 0.00 39 1021.7
20260507101019 25 150 9.7 17.7 0.00 0.00 0.00 48 1022.2
20260507095828 25 0.0 4.8 0.00 0.00 0.00 48 1022.2
20260507094852 24 176 6.4 11.3 0.00 0.00 0.00 52 1022.2
20260507093812 24 155 8.0 14.5 0.00 0.00 0.00 50 1022.2
20260507092628 25 138 11.3 16.1 0.00 0.00 0.00 45 1022.4
20260507091652 24 120 6.4 8.0 0.00 0.00 0.00 47 1022.4
20260507090613 24 136 8.0 11.3 0.00 0.00 0.00 48 1022.0
20260507085429 25 145 4.8 8.0 0.00 0.00 0.00 47 1022.3
20260507084452 25 160 1.6 9.7 0.00 0.00 0.00 47 1022.2
20260507083432 24 130 4.8 8.0 0.00 0.00 0.00 48 1022.1
20260507082332 23 228 4.8 9.7 0.00 0.00 0.00 48 1022.0
20260507081356 24 90 1.6 8.0 0.00 0.00 0.00 48 1022.2
20260507080316 23 208 4.8 4.8 0.00 0.00 0.00 47 1022.3
20260507075228 23 134 1.6 8.0 0.00 0.00 0.00 49 1022.1
20260507074312 23 82 4.8 4.8 0.00 0.00 0.00 47 1022.1
20260507073212 22 116 4.8 9.7 0.00 0.00 0.00 50 1021.6
20260507072028 22 167 6.4 8.0 0.00 0.00 0.00 51 1022.2
20260507071052 22 142 3.2 4.8 0.00 0.00 0.00 51 1022.5
20260507070013 21 178 6.4 9.7 0.00 0.00 0.00 53 1022.7
20260507064828 21 155 3.2 11.3 0.00 0.00 0.00 53 1022.4
20260507063913 20 180 4.8 9.7 0.00 0.00 0.00 53 1022.4
20260507062813 20 133 8.0 12.9 0.00 0.00 0.00 53 1022.4
20260507061629 20 103 6.4 12.9 0.00 0.00 0.00 53 1022.1
20260507060652 20 120 4.8 12.9 0.00 0.00 0.00 51 1022.2
20260507055612 20 151 6.4 9.7 0.00 0.00 0.00 52 1021.6
20260507054428 20 99 3.2 4.8 0.00 0.00 0.00 50 1021.7
20260507053452 20 153 1.6 3.2 0.00 0.00 0.00 49 1021.4
20260507052413 20 129 1.6 3.2 0.00 0.00 0.00 51 1021.6
20260507051228 19 119 1.6 1.6 0.00 0.00 0.00 54 1021.6
20260507050252 18 97 1.6 3.2 0.00 0.00 0.00 56 1021.7
20260507045212 18 92 1.6 1.6 0.00 0.00 0.00 55 1021.9
20260507044028 17 90 0.0 1.6 0.00 0.00 0.00 56 1021.5
20260507043053 17 45 1.6 1.6 0.00 0.00 0.00 57 1021.7
20260507042012 16 89 0.0 1.6 0.00 0.00 0.00 61 1022.0
20260507040828 15 76 1.6 1.6 0.00 0.00 0.00 63 1021.9
20260507035852 14 0.0 1.6 0.00 0.00 0.00 66 1022.0
20260507034812 15 0.0 0.0 0.00 0.00 0.00 65 1022.1
20260507033628 14 0.0 0.0 0.00 0.00 0.00 67 1022.3
20260507032652 13 82 1.6 1.6 0.00 0.00 0.00 69 1021.9
20260507031612 14 0.0 0.0 0.00 0.00 0.00 69 1021.9
20260507030428 14 0.0 1.6 0.00 0.00 0.00 69 1022.0
20260507025452 14 66 1.6 3.2 0.00 0.00 0.00 69 1021.9
20260507024412 14 76 0.0 1.6 0.00 0.00 0.00 69 1021.9
20260507023228 14 37 1.6 3.2 0.00 0.00 0.00 67 1021.8
20260507022252 14 64 1.6 3.2 0.00 0.00 0.00 67 1021.8
20260507021212 14 45 1.6 1.6 0.00 0.00 0.00 67 1021.9
20260507020028 13 83 0.0 1.6 0.00 0.00 0.00 68 1021.7
20260507015052 13 0.0 0.0 0.00 0.00 0.00 66 1021.7
20260507014012 14 72 1.6 1.6 0.00 0.00 0.00 65 1021.7
20260507012828 14 157 1.6 1.6 0.00 0.00 0.00 64 1021.2
20260507011852 14 0.0 3.2 0.00 0.00 0.00 64 1020.9
20260507010812 14 98 1.6 1.6 0.00 0.00 0.00 65 1021.0
20260507005628 14 93 1.6 3.2 0.00 0.00 0.00 64 1021.1
20260507004652 15 94 1.6 1.6 0.00 0.00 0.00 62 1021.0
20260507003632 15 94 1.6 3.2 0.00 0.00 0.00 61 1020.8
20260507002428 15 107 3.2 8.0 0.00 0.00 0.00 62 1021.1
20260507001452 15 93 0.0 3.2 0.00 0.00 0.00 63 1021.0
20260507000413 15 92 1.6 1.6 0.00 0.00 0.00 61 1021.1
20260506235248 15 64 1.6 1.6 0.00 0.00 0.00 61 1021.6
20260506234252 16 0.0 1.6 0.00 0.00 0.00 59 1021.5
20260506233212 16 18 1.6 3.2 0.00 0.00 0.00 58 1021.7
20260506232028 15 0.0 1.6 0.00 0.00 0.00 60 1021.7
20260506231052 15 74 0.0 1.6 0.00 0.00 0.00 61 1021.8
20260506230013 15 0.0 1.6 0.00 0.00 0.00 60 1021.7
20260506224828 15 91 3.2 3.2 0.00 0.00 0.00 61 1021.7
20260506223913 15 0.0 1.6 0.00 0.00 0.00 61 1021.7
20260506222832 16 108 1.6 1.6 0.00 0.00 0.00 59 1021.7
20260506221628 16 0.0 0.0 0.00 0.00 0.00 58 1022.0
20260506220712 16 25 1.6 1.6 0.00 0.00 0.00 57 1021.7
20260506215612 16 0.0 1.6 0.00 0.00 0.00 58 1021.9
20260506214428 16 0.0 1.6 0.00 0.00 0.00 59 1021.9
20260506213452 16 68 1.6 1.6 0.00 0.00 0.00 57 1022.1
20260506212412 17 0.0 1.6 0.00 0.00 0.00 54 1022.2
20260506211228 17 353 1.6 3.2 0.00 0.00 0.00 51 1022.2
20260506210252 17 2 3.2 4.8 0.00 0.00 0.00 50 1022.1
20260506205212 18 325 3.2 3.2 0.00 0.00 0.00 50 1022.3
20260506204028 18 322 3.2 4.8 0.00 0.00 0.00 50 1022.3
20260506203052 17 44 1.6 1.6 0.00 0.00 0.00 54 1022.1
20260506202012 16 85 0.0 1.6 0.00 0.00 0.00 56 1021.8